sat.trackr.live / text

‹ back to catalog

STARLINK-31162

NORAD 58791 · 2024-012E

PAYLOAD ACTIVE UNKNOWN

§ Identity

Operator
Country
US
Launch date
2024-01-15
Launch site
AFETR
Launch vehicle
Mass (kg)
RCS (m²)

Purposes: comms

External: N2YO · Heavens-Above · Gunter

§ Orbital elements

Epoch: 2026-09-20T23:18:42.378912Z

Period
94.27 min
Inclination
43.0021°
Eccentricity
0.0000992
Mean motion
15.27588952 rev/d
Perigee alt
482.3 km
Apogee alt
483.7 km
Semi-major
6,861.2 km
B*
5.3159e-5
RAAN
142.2490°
Arg perigee
277.6354°
Mean anomaly
82.4385°
Rev number
15,110

§ Raw data

STARLINK-311621 58791U 24012E   26263.97132383  .00001201  00000+0  53159-4 0  99942 58791  43.0021 142.2490 0000992 277.6354  82.4385 15.27588952151108

JSON: /api/v1/satellites/58791 · /tle

For live sub-satellite position, see the globe view (requires WebGL).

§ Visibility from observer

Set your observer location to see the next 7 days of passes ≥ 10°. The values pass through the URL so the page stays shareable.

No JS? Fill the form by hand. The geolocation button needs JavaScript.